| time (UTC) | temp F | wind direction | speed MPH | gust MPH | rain 1hr in | rain 24hr in | rain mn in | humidity % | barometer mb |
| 20260505152556 | 63 | 252 | 1.0 | 2.0 | 0.00 | 0.00 | 0.00 | 63 | 1023.4 |
| 20260505151518 | 63 | 287 | 1.0 | 2.0 | 0.00 | 0.00 | 0.00 | 63 | 1023.5 |
| 20260505150518 | 63 | 248 | 2.0 | 5.0 | 0.00 | 0.00 | 0.00 | 63 | 1023.5 |
| 20260505140518 | 63 | 286 | 1.0 | 3.0 | 0.00 | 0.00 | 0.00 | 55 | 1023.6 |
| 20260505124539 | 63 | 293 | 1.0 | 3.0 | 0.00 | 0.00 | 0.00 | 50 | 1023.3 |
| 20260505123518 | 63 | 332 | 1.0 | 2.0 | 0.00 | 0.00 | 0.00 | 49 | 1023.2 |
| 20260505122537 | 63 | 317 | 1.0 | 4.0 | 0.00 | 0.00 | 0.00 | 48 | 1023.3 |
| 20260505121518 | 63 | 317 | 1.0 | 4.0 | 0.00 | 0.00 | 0.00 | 47 | 1023.2 |
| 20260505120538 | 63 | 316 | 1.0 | 4.0 | 0.00 | 0.00 | 0.00 | 47 | 1023.3 |
| 20260505115516 | 63 | 327 | 1.0 | 2.0 | 0.00 | 0.00 | 0.00 | 47 | 1023.2 |
| 20260505114518 | 63 | 314 | 1.0 | 2.0 | 0.00 | 0.00 | 0.00 | 47 | 1023.1 |
| 20260505113517 | 63 | 310 | 1.0 | 4.0 | 0.00 | 0.00 | 0.00 | 46 | 1023.2 |
| 20260505112516 | 63 | 3 | 1.0 | 5.0 | 0.00 | 0.00 | 0.00 | 45 | 1023.1 |
| 20260505111518 | 63 | 347 | 1.0 | 2.0 | 0.00 | 0.00 | 0.00 | 44 | 1023.0 |
| 20260505110518 | 63 | 318 | 1.0 | 3.0 | 0.00 | 0.00 | 0.00 | 44 | 1022.9 |
| 20260505101519 | 64 | 276 | 1.0 | 3.0 | 0.00 | 0.00 | 0.00 | 36 | 1022.4 |
| 20260505100517 | 64 | 260 | 2.0 | 5.0 | 0.00 | 0.00 | 0.00 | 39 | 1022.2 |
| 20260505095516 | 65 | 343 | 1.0 | 3.0 | 0.00 | 0.00 | 0.00 | 40 | 1022.0 |
| 20260505094519 | 65 | 261 | 2.0 | 4.0 | 0.00 | 0.00 | 0.00 | 40 | 1022.0 |
| 20260505093517 | 65 | 247 | 1.0 | 4.0 | 0.00 | 0.00 | 0.00 | 42 | 1021.9 |
| 20260505092516 | 66 | 325 | 1.0 | 3.0 | 0.00 | 0.00 | 0.00 | 43 | 1021.7 |
| 20260505091518 | 66 | 239 | 2.0 | 6.0 | 0.00 | 0.00 | 0.00 | 43 | 1021.5 |
| 20260505090518 | 67 | 277 | 2.0 | 5.0 | 0.00 | 0.00 | 0.00 | 41 | 1021.3 |
| 20260505085517 | 68 | 348 | 1.0 | 2.0 | 0.00 | 0.00 | 0.00 | 41 | 1021.1 |
| 20260505084519 | 69 | 347 | 1.0 | 2.0 | 0.00 | 0.00 | 0.00 | 39 | 1020.9 |
| 20260505083518 | 70 | 335 | 2.0 | 4.0 | 0.00 | 0.00 | 0.00 | 37 | 1020.8 |
| 20260505082517 | 72 | 290 | 1.0 | 4.0 | 0.00 | 0.00 | 0.00 | 33 | 1020.7 |
| 20260505081518 | 74 | 299 | 2.0 | 4.0 | 0.00 | 0.00 | 0.00 | 30 | 1020.6 |
| 20260505080518 | 74 | 300 | 1.0 | 3.0 | 0.00 | 0.00 | 0.00 | 27 | 1020.6 |
| 20260505075517 | 74 | 268 | 2.0 | 5.0 | 0.00 | 0.00 | 0.00 | 25 | 1020.5 |
| 20260505074519 | 76 | 326 | 1.0 | 4.0 | 0.00 | 0.00 | 0.00 | 22 | 1020.5 |
| 20260505073518 | 76 | 279 | 2.0 | 5.0 | 0.00 | 0.00 | 0.00 | 21 | 1020.4 |
| 20260505072517 | 77 | 322 | 1.0 | 3.0 | 0.00 | 0.00 | 0.00 | 21 | 1020.2 |
| 20260505071516 | 77 | 294 | 1.0 | 3.0 | 0.00 | 0.00 | 0.00 | 19 | 1020.1 |
| 20260505070538 | 78 | 295 | 1.0 | 3.0 | 0.00 | 0.00 | 0.00 | 17 | 1020.0 |
| 20260505065517 | 77 | 327 | 1.0 | 4.0 | 0.00 | 0.00 | 0.00 | 16 | 1020.1 |
| 20260505064519 | 79 | 333 | 1.0 | 4.0 | 0.00 | 0.00 | 0.00 | 14 | 1019.9 |
| 20260505063518 | 79 | 315 | 1.0 | 3.0 | 0.00 | 0.00 | 0.00 | 14 | 1019.9 |
| 20260505062517 | 79 | 271 | 1.0 | 4.0 | 0.00 | 0.00 | 0.00 | 15 | 1019.9 |
| 20260505061519 | 79 | 345 | 1.0 | 3.0 | 0.00 | 0.00 | 0.00 | 15 | 1019.8 |
| 20260505060517 | 79 | 256 | 1.0 | 4.0 | 0.00 | 0.00 | 0.00 | 15 | 1019.8 |
| 20260505055557 | 80 | 358 | 1.0 | 2.0 | 0.00 | 0.00 | 0.00 | 14 | 1019.6 |
| 20260505054559 | 80 | 80 | 1.0 | 4.0 | 0.00 | 0.00 | 0.00 | 14 | 1019.6 |
| 20260505053518 | 79 | 37 | 1.0 | 3.0 | 0.00 | 0.00 | 0.00 | 13 | 1019.6 |
| 20260505052516 | 80 | 88 | 2.0 | 4.0 | 0.00 | 0.00 | 0.00 | 13 | 1019.7 |
| 20260505051519 | 79 | 10 | 1.0 | 2.0 | 0.00 | 0.00 | 0.00 | 13 | 1019.8 |
| 20260505050518 | 78 | 88 | 1.0 | 4.0 | 0.00 | 0.00 | 0.00 | 14 | 1020.1 |
| 20260505041516 | 78 | 15 | 2.0 | 5.0 | 0.00 | 0.00 | 0.00 | 15 | 1020.4 |
| 20260505040518 | 77 | 15 | 1.0 | 2.0 | 0.00 | 0.00 | 0.00 | 15 | 1020.4 |
| 20260505035517 | 75 | 257 | 1.0 | 2.0 | 0.00 | 0.00 | 0.00 | 15 | 1020.4 |
| 20260505034516 | 74 | 31 | 2.0 | 4.0 | 0.00 | 0.00 | 0.00 | 16 | 1020.4 |
| 20260505033519 | 76 | 359 | 1.0 | 3.0 | 0.00 | 0.00 | 0.00 | 16 | 1020.4 |
| 20260505032537 | 75 | 27 | 1.0 | 3.0 | 0.00 | 0.00 | 0.00 | 15 | 1020.5 |
| 20260505031519 | 75 | 40 | 2.0 | 4.0 | 0.00 | 0.00 | 0.00 | 16 | 1020.5 |
| 20260505030518 | 76 | 10 | 1.0 | 3.0 | 0.00 | 0.00 | 0.00 | 15 | 1020.5 |
| 20260505025517 | 75 | 348 | 1.0 | 4.0 | 0.00 | 0.00 | 0.00 | 15 | 1020.4 |
| 20260505024519 | 76 | 27 | 1.0 | 4.0 | 0.00 | 0.00 | 0.00 | 15 | 1020.5 |
| 20260505023517 | 74 | 11 | 1.0 | 3.0 | 0.00 | 0.00 | 0.00 | 15 | 1020.7 |
| 20260505022516 | 73 | 358 | 2.0 | 6.0 | 0.00 | 0.00 | 0.00 | 15 | 1020.6 |
| 20260505021519 | 74 | 20 | 1.0 | 3.0 | 0.00 | 0.00 | 0.00 | 17 | 1020.8 |
| 20260505020518 | 72 | 293 | 1.0 | 4.0 | 0.00 | 0.00 | 0.00 | 17 | 1020.8 |
| 20260505015537 | 73 | 55 | 1.0 | 3.0 | 0.00 | 0.00 | 0.00 | 17 | 1020.8 |
| 20260505014519 | 72 | 11 | 1.0 | 5.0 | 0.00 | 0.00 | 0.00 | 19 | 1020.8 |
| 20260505013517 | 71 | 320 | 1.0 | 3.0 | 0.00 | 0.00 | 0.00 | 19 | 1020.7 |
| 20260505012519 | 71 | 329 | 2.0 | 6.0 | 0.00 | 0.00 | 0.00 | 20 | 1020.8 |
| 20260505011517 | 70 | 314 | 2.0 | 7.0 | 0.00 | 0.00 | 0.00 | 21 | 1020.7 |
| 20260505010516 | 71 | 358 | 2.0 | 5.0 | 0.00 | 0.00 | 0.00 | 20 | 1020.8 |
| 20260505005518 | 69 | 352 | 2.0 | 4.0 | 0.00 | 0.00 | 0.00 | 21 | 1020.7 |
| 20260505004517 | 70 | 301 | 1.0 | 4.0 | 0.00 | 0.00 | 0.00 | 21 | 1020.6 |
| 20260505003537 | 69 | 18 | 2.0 | 5.0 | 0.00 | 0.00 | 0.00 | 23 | 1020.6 |
| 20260505002518 | 68 | 300 | 2.0 | 5.0 | 0.00 | 0.00 | 0.00 | 23 | 1020.5 |
| 20260505001517 | 67 | 331 | 1.0 | 4.0 | 0.00 | 0.00 | 0.00 | 24 | 1020.5 |
| 20260505000516 | 67 | 309 | 2.0 | 5.0 | 0.00 | 0.00 | 0.00 | 24 | 1020.4 |
| 20260504235519 | 68 | 336 | 2.0 | 4.0 | 0.00 | 0.00 | 0.00 | 24 | 1020.5 |
| 20260504234517 | 67 | 339 | 2.0 | 5.0 | 0.00 | 0.00 | 0.00 | 25 | 1020.5 |
| 20260504233516 | 65 | 301 | 2.0 | 4.0 | 0.00 | 0.00 | 0.00 | 27 | 1020.5 |
| 20260504232538 | 65 | 301 | 2.0 | 5.0 | 0.00 | 0.00 | 0.00 | 28 | 1020.6 |
| 20260504231557 | 65 | 289 | 2.0 | 6.0 | 0.00 | 0.00 | 0.00 | 28 | 1020.6 |
| 20260504230516 | 66 | 290 | 2.0 | 5.0 | 0.00 | 0.00 | 0.00 | 27 | 1020.6 |
| 20260504225518 | 66 | 303 | 2.0 | 4.0 | 0.00 | 0.00 | 0.00 | 28 | 1020.4 |
| 20260504224517 | 64 | 313 | 1.0 | 5.0 | 0.00 | 0.00 | 0.00 | 29 | 1020.2 |
| 20260504223516 | 64 | 288 | 1.0 | 6.0 | 0.00 | 0.00 | 0.00 | 31 | 1020.1 |
| 20260504222518 | 63 | 308 | 2.0 | 4.0 | 0.00 | 0.00 | 0.00 | 32 | 1020.2 |
| 20260504221517 | 62 | 297 | 2.0 | 6.0 | 0.00 | 0.00 | 0.00 | 33 | 1020.1 |
| 20260504220516 | 62 | 298 | 1.0 | 6.0 | 0.00 | 0.00 | 0.00 | 33 | 1019.9 |
| 20260504215518 | 61 | 315 | 2.0 | 5.0 | 0.00 | 0.00 | 0.00 | 34 | 1019.9 |
| 20260504214517 | 61 | 284 | 2.0 | 5.0 | 0.00 | 0.00 | 0.00 | 35 | 1019.9 |
| 20260504213519 | 61 | 315 | 1.0 | 3.0 | 0.00 | 0.00 | 0.00 | 35 | 1019.7 |
| 20260504212518 | 62 | 323 | 1.0 | 4.0 | 0.00 | 0.00 | 0.00 | 35 | 1019.5 |
| 20260504211516 | 60 | 337 | 1.0 | 4.0 | 0.00 | 0.00 | 0.00 | 36 | 1019.3 |
| 20260504210519 | 58 | 316 | 1.0 | 4.0 | 0.00 | 0.01 | 0.00 | 38 | 1019.0 |
| 20260504205518 | 57 | 309 | 1.0 | 4.0 | 0.00 | 0.02 | 0.00 | 40 | 1018.7 |
| 20260504204516 | 57 | 300 | 1.0 | 3.0 | 0.00 | 0.02 | 0.00 | 41 | 1018.4 |
| 20260504203519 | 56 | 359 | 1.0 | 4.0 | 0.00 | 0.03 | 0.00 | 42 | 1018.2 |
| 20260504202518 | 56 | 325 | 1.0 | 4.0 | 0.00 | 0.04 | 0.00 | 42 | 1018.2 |
| 20260504201537 | 56 | 38 | 1.0 | 3.0 | 0.00 | 0.04 | 0.00 | 42 | 1018.0 |
| 20260504200515 | 56 | 354 | 1.0 | 3.0 | 0.00 | 0.07 | 0.00 | 43 | 1017.6 |
| 20260504195518 | 56 | 298 | 1.0 | 3.0 | 0.00 | 0.07 | 0.00 | 42 | 1017.3 |
| 20260504194517 | 56 | 10 | 1.0 | 3.0 | 0.00 | 0.07 | 0.00 | 42 | 1017.1 |
| 20260504193519 | 56 | 14 | 1.0 | 3.0 | 0.00 | 0.08 | 0.00 | 42 | 1016.8 |
| 20260504192518 | 56 | 347 | 2.0 | 5.0 | 0.00 | 0.08 | 0.00 | 42 | 1016.5 |
| 20260504191517 | 56 | 345 | 2.0 | 4.0 | 0.00 | 0.08 | 0.00 | 43 | 1016.2 |
| 20260504190559 | 56 | 345 | 1.0 | 4.0 | 0.00 | 0.08 | 0.00 | 42 | 1016.0 |
| 20260504185517 | 56 | 2 | 1.0 | 6.0 | 0.00 | 0.08 | 0.00 | 42 | 1015.8 |
| 20260504184516 | 56 | 18 | 2.0 | 6.0 | 0.00 | 0.08 | 0.00 | 42 | 1015.6 |
| 20260504183519 | 56 | 308 | 2.0 | 7.0 | 0.00 | 0.08 | 0.00 | 43 | 1015.4 |
| 20260504182517 | 56 | 313 | 2.0 | 4.0 | 0.00 | 0.08 | 0.00 | 44 | 1015.4 |
| 20260504181517 | 56 | 3 | 1.0 | 4.0 | 0.00 | 0.08 | 0.00 | 44 | 1015.2 |
| 20260504180519 | 56 | 4 | 2.0 | 6.0 | 0.00 | 0.08 | 0.00 | 44 | 1015.0 |
| 20260504175518 | 56 | 338 | 2.0 | 6.0 | 0.00 | 0.08 | 0.00 | 44 | 1014.8 |
| 20260504174519 | 56 | 351 | 2.0 | 5.0 | 0.00 | 0.08 | 0.00 | 44 | 1014.4 |
| 20260504173517 | 56 | 348 | 2.0 | 4.0 | 0.00 | 0.08 | 0.00 | 43 | 1014.2 |
| 20260504172536 | 56 | 3 | 2.0 | 9.0 | 0.00 | 0.08 | 0.00 | 43 | 1013.9 |
| 20260504171538 | 56 | 358 | 2.0 | 5.0 | 0.00 | 0.08 | 0.00 | 43 | 1013.7 |
| 20260504170517 | 57 | 2 | 3.0 | 6.0 | 0.00 | 0.08 | 0.00 | 42 | 1013.6 |